Hourly Data Report for July 07, 2003

SHERBROOKE A
QUEBEC

45°26'00.000" N
71°41'00.000" W
241.40 m
7028124
71610
YSC

Download Data

Hourly Data (July 2003)
Hourly Data Report for July 7, 2003
TIME
LST
Temp Definition
°C
Dew Point Definition
°C
Rel Hum Definition
%
Precip. Amount Definition
mm

Wind Dir Definition
10's deg

Wind Spd Definition
km/h
Visibility Definition
km
Stn Press Definition
kPa
Hmdx Definition


Wind Chill Definition


Weather Definition


00:00 13.2 12.7 97     0 8.0 98.45      
01:00 13.5 13.1 97   9 4 15.0 98.49      
02:00 13.4 12.8 96   9 4 15.0 98.55      
03:00 12.7 12.3 97   9 4 15.0 98.57      
04:00 11.8 11.3 97   11 6 15.0 98.62      
05:00 12.5 11.9 96   10 6 15.0 98.65      
06:00 13.6 12.9 96   9 4 15.0 98.66      
07:00 16.4 14.4 88     0 24.1 98.66     Mainly Clear
08:00 19.8 14.6 72   8 4 24.1 98.64     Mostly Cloudy
09:00 22.4 13.8 58     0 24.1 98.62 26   Mostly Cloudy
10:00 23.7 11.7 47     0 24.1 98.59 26   Mostly Cloudy
11:00 23.9 12.9 50   19 4 24.1 98.56 27   Mostly Cloudy
12:00 24.0 13.9 53   21 7 24.1 98.55 27   Mostly Cloudy
13:00 25.4 13.4 47   20 7 24.1 98.53 28   Mostly Cloudy
14:00 25.8 13.6 47   20 6 24.1 98.49 29   Mostly Cloudy
15:00 25.5 14.6 51   24 7 24.1 98.45 29   Mostly Cloudy
16:00 26.0 15.1 51   20 6 24.1 98.42 30   Mostly Cloudy
17:00 26.1 15.3 51     0 15.0 98.35 30    
18:00 24.7 18.3 68   16 4 15.0 98.34 31    
19:00 22.3 17.5 74   14 7 15.0 98.33 28    
20:00 19.8 17.0 84   10 6 15.0 98.33      
21:00 19.1 16.5 85     0 15.0 98.36      
22:00 18.8 16.4 86   9 4 15.0 98.29      
23:00 19.1 15.8 81   6 7 15.0 98.27      

Notes on Data Quality.

Legend

  • E = Estimated
  • M = Missing
  • NA = Not Available*
  • [empty] = Indicates an unobserved value
Date modified: